Location: Middelsbur
(53.6609°N, 7.5020°E)
Time: 23:18:59
(UTC+00:00)

Cosmos 2074 Rocket - Pass Details

Date: 06 July 2020
Orbit: 967 x 986 km, 82.9° (Epoch: 14 August)

Event Time Altitude Azimuth Distance (km) Brightness Sun altitude
Exits shadow 21:54:28 - 192° (SSW) 3,020 6.1 -10.7°
Reaches altitude 10° 21:55:17 10° 193° (SSW) 2,716 5.9 -10.8°
Maximum altitude 22:01:31 81° 281° (W) 989 4.1 -11.1°
Drops below altitude 10° 22:07:47 10° 10° (N) 2,724 7.3 -11.5°
Sets 22:10:18 0° 11° (N) 3,674 8.1 -11.6°
